Volver al catálogo

STARLINK-36148

ActivoComunicacionesVLEO
NORAD 67005·PAYLOAD·🇺🇸 United States

Lanzado Dec 10, 2025 desde Vandenberg Space Force Base

Loading…

Próximos Pases (próximas 24 horas)

TLE

ActualizadoSource: CelesTrak SupGP

Época: Sep 15, 2026, 03:57 UTC

1 67005C 25293C   26258.16506944  .00045057  00000+0  37738-2 0  2585
2 67005  70.0022 336.8233 0003566 262.7237 216.0010 14.98328883    13

Sigue STARLINK-36148 en tiempo real con AllMySat

Download on the App Store